Change the Weather History Date:

Wednesday, November 20, 2013

  Actual Average Record
Temperature  
Mean Temperature 38 °F -  
Max Temperature 44 °F 52 °F 69 °F (1999)
Min Temperature 32 °F 38 °F 32 °F (2000)
Degree Days  
Heating Degree Days 27    
Moisture  
Dew Point 23 °F    
Average Humidity 58    
Maximum Humidity 75    
Minimum Humidity 49    
Precipitation  
Precipitation 0.00 in - - ()
Sea Level Pressure  
Sea Level Pressure 30.51 in    
Wind  
Wind Speed 9 mph (NNE)    
Max Wind Speed 15 mph    
Max Gust Speed 22 mph    
Visibility 10 miles    
Events      
Averages and records for this station are not official NWS values.
T = Trace of Precipitation, MM = Missing Value Source: NWS Daily Summary

Daily Weather History Graph

Daily Weather History Graph

Search for Another Location

Airport or City:

Trip Planner

Search our weather history database for the weather conditions in past years. The results will help you decide how hot, cold, wet, or windy it might be!

Date:

Astronomy

Nov. 20, 2013 Rise Set
Actual Time 6:48 AM EST 4:42 PM EST
Civil Twilight 6:19 AM EST 5:10 PM EST
Nautical Twilight 5:46 AM EST 5:43 PM EST
Astronomical Twilight 5:15 AM EST 6:15 PM EST
Moon 7:22 PM EST (11/20) 9:11 AM EST (11/20)
Length of Visible Light 10h 51m
Length of Day
9h 53m
Waning Gibbous, 91% of the Moon is Illuminated
Nov 20
Waning Gibbous
Nov 25
Last Quarter
Dec 2
New
Dec 9
First Quarter
Dec 17
Full

Hourly Weather History & Observations

Time (EST) Temp. Windchill Dew Point Humidity Pressure Visibility Wind Dir Wind Speed Gust Speed Precip Events Conditions
12:15 AM 37.4 °F 32.1 °F 21.2 °F 52% 30.35 in 10.0 mi North 6.9 mph - N/A   Clear
12:35 AM 37.4 °F 32.1 °F 21.2 °F 52% 30.36 in 10.0 mi North 6.9 mph - N/A   Clear
12:55 AM 37.4 °F 32.1 °F 21.2 °F 52% 30.36 in 10.0 mi North 6.9 mph - N/A   Clear
1:15 AM 35.6 °F 28.6 °F 21.2 °F 56% 30.36 in 10.0 mi North 9.2 mph - N/A   Clear
1:35 AM 35.6 °F 28.6 °F 19.4 °F 52% 30.37 in 10.0 mi North 9.2 mph - N/A   Clear
1:55 AM 35.6 °F 29.2 °F 19.4 °F 52% 30.38 in 10.0 mi North 8.1 mph - N/A   Clear
2:15 AM 35.6 °F 29.2 °F 19.4 °F 52% 30.39 in 10.0 mi North 8.1 mph - N/A   Clear
2:35 AM 33.8 °F 27.7 °F 19.4 °F 56% 30.39 in 10.0 mi North 6.9 mph - N/A   Clear
2:55 AM 33.8 °F 28.6 °F 19.4 °F 56% 30.41 in 10.0 mi North 5.8 mph - N/A   Clear
3:15 AM 32.0 °F 26.4 °F 19.4 °F 60% 30.41 in 10.0 mi North 5.8 mph - N/A   Clear
3:35 AM 33.8 °F 27.7 °F 19.4 °F 56% 30.41 in 10.0 mi North 6.9 mph - N/A   Clear
3:55 AM 33.8 °F 26.4 °F 19.4 °F 56% 30.42 in 10.0 mi North 9.2 mph - N/A   Clear
4:15 AM 33.8 °F 26.4 °F 19.4 °F 56% 30.43 in 10.0 mi North 9.2 mph - N/A   Clear
4:35 AM 33.8 °F 26.4 °F 19.4 °F 56% 30.43 in 10.0 mi North 9.2 mph - N/A   Clear
4:55 AM 33.8 °F 26.4 °F 19.4 °F 56% 30.44 in 10.0 mi North 9.2 mph - N/A   Clear
5:15 AM 33.8 °F 26.4 °F 19.4 °F 56% 30.45 in 10.0 mi North 9.2 mph - N/A   Clear
5:35 AM 33.8 °F 25.8 °F 19.4 °F 56% 30.45 in 10.0 mi North 10.4 mph - N/A   Clear
5:55 AM 32.0 °F 24.8 °F 19.4 °F 60% 30.47 in 10.0 mi North 8.1 mph - N/A   Clear
6:15 AM 32.0 °F 24.8 °F 19.4 °F 60% 30.48 in 10.0 mi North 8.1 mph - N/A   Clear
6:35 AM 32.0 °F 24.2 °F 19.4 °F 60% 30.48 in 10.0 mi North 9.2 mph - N/A   Clear
6:55 AM 32.0 °F 24.8 °F 19.4 °F 60% 30.49 in 10.0 mi North 8.1 mph - N/A   Clear
7:15 AM 32.0 °F 24.2 °F 19.4 °F 60% 30.50 in 10.0 mi North 9.2 mph - N/A   Clear
7:35 AM 33.8 °F 25.3 °F 19.4 °F 56% 30.51 in 10.0 mi North 11.5 mph - N/A   Clear
7:55 AM 33.8 °F 25.3 °F 19.4 °F 56% 30.51 in 10.0 mi North 11.5 mph - N/A   Clear
8:15 AM 33.8 °F 24.8 °F 19.4 °F 56% 30.51 in 10.0 mi North 12.7 mph - N/A   Clear
8:35 AM 33.8 °F 25.3 °F 19.4 °F 56% 30.53 in 10.0 mi North 11.5 mph - N/A   Clear
8:55 AM 35.6 °F 27.5 °F 19.4 °F 52% 30.53 in 10.0 mi North 11.5 mph - N/A   Clear
9:15 AM 35.6 °F 27.5 °F 19.4 °F 52% 30.54 in 10.0 mi North 11.5 mph - N/A   Clear
9:35 AM 37.4 °F 29.8 °F 21.2 °F 52% 30.54 in 10.0 mi NNE 11.5 mph - N/A   Clear
9:55 AM 37.4 °F 30.3 °F 21.2 °F 52% 30.54 in 10.0 mi North 10.4 mph - N/A   Clear
10:15 AM 37.4 °F 29.8 °F 21.2 °F 52% 30.55 in 10.0 mi North 11.5 mph - N/A   Clear
10:35 AM 39.2 °F 30.8 °F 23.0 °F 52% 30.54 in 10.0 mi NNE 15.0 mph - N/A   Clear
10:55 AM 41.0 °F 33.9 °F 24.8 °F 53% 30.55 in 10.0 mi NNE 12.7 mph 18.4 mph N/A   Clear
11:15 AM 42.8 °F 37.5 °F 26.6 °F 53% 30.55 in 10.0 mi NNE 9.2 mph 19.6 mph N/A   Clear
11:35 AM 44.6 °F 38.4 °F 26.6 °F 49% 30.54 in 10.0 mi NE 12.7 mph 19.6 mph N/A   Clear
11:55 AM 42.8 °F 37.0 °F 26.6 °F 53% 30.55 in 10.0 mi NNE 10.4 mph 19.6 mph N/A   Clear
12:15 PM 44.6 °F 38.4 °F 26.6 °F 49% 30.54 in 10.0 mi NE 12.7 mph 20.7 mph N/A   Clear
12:35 PM 44.6 °F 38.8 °F 26.6 °F 49% 30.54 in 10.0 mi NE 11.5 mph 21.9 mph N/A   Clear
12:55 PM 44.6 °F 37.8 °F 26.6 °F 49% 30.54 in 10.0 mi NE 15.0 mph - N/A   Clear
1:15 PM 44.6 °F 38.8 °F 26.6 °F 49% 30.54 in 10.0 mi NE 11.5 mph 17.3 mph N/A   Clear
1:35 PM 44.6 °F 38.8 °F 26.6 °F 49% 30.54 in 10.0 mi ENE 11.5 mph 18.4 mph N/A   Clear
1:55 PM 44.6 °F 38.4 °F 28.4 °F 53% 30.54 in 10.0 mi East 12.7 mph 17.3 mph N/A   Clear
2:15 PM 44.6 °F 38.8 °F 26.6 °F 49% 30.54 in 10.0 mi ENE 11.5 mph 17.3 mph N/A   Clear
2:35 PM 44.6 °F 38.4 °F 26.6 °F 49% 30.54 in 10.0 mi East 12.7 mph 17.3 mph N/A   Clear
2:55 PM 42.8 °F 36.2 °F 26.6 °F 53% 30.53 in 10.0 mi NE 12.7 mph 17.3 mph N/A   Clear
3:15 PM 42.8 °F 36.6 °F 26.6 °F 53% 30.54 in 10.0 mi ENE 11.5 mph - N/A   Clear
3:35 PM 42.8 °F 36.2 °F 26.6 °F 53% 30.54 in 10.0 mi NNE 12.7 mph 17.3 mph N/A   Clear
3:55 PM 42.8 °F 38.0 °F 26.6 °F 53% 30.54 in 10.0 mi NE 8.1 mph - N/A   Clear
4:15 PM 42.8 °F 37.5 °F 26.6 °F 53% 30.55 in 10.0 mi ENE 9.2 mph - N/A   Clear
4:35 PM 41.0 °F 36.4 °F 26.6 °F 57% 30.55 in 10.0 mi NE 6.9 mph - N/A   Clear
4:55 PM 39.2 °F 35.0 °F 26.6 °F 61% 30.55 in 10.0 mi NE 5.8 mph - N/A   Clear
5:15 PM 37.4 °F 32.8 °F 26.6 °F 65% 30.55 in 10.0 mi NNE 5.8 mph - N/A   Clear
5:35 PM 37.4 °F 32.8 °F 26.6 °F 65% 30.55 in 10.0 mi NNE 5.8 mph - N/A   Clear
5:55 PM 35.6 °F 30.7 °F 26.6 °F 70% 30.55 in 10.0 mi NNE 5.8 mph - N/A   Clear
6:15 PM 35.6 °F 29.9 °F 26.6 °F 70% 30.55 in 10.0 mi NNE 6.9 mph - N/A   Clear
6:35 PM 35.6 °F 29.9 °F 24.8 °F 65% 30.55 in 10.0 mi NNE 6.9 mph - N/A   Clear
6:55 PM 35.6 °F 30.7 °F 24.8 °F 65% 30.55 in 10.0 mi NNE 5.8 mph - N/A   Clear
7:15 PM 35.6 °F 30.7 °F 24.8 °F 65% 30.56 in 10.0 mi North 5.8 mph - N/A   Clear
7:35 PM 33.8 °F 27.0 °F 24.8 °F 70% 30.56 in 10.0 mi NNE 8.1 mph - N/A   Partly Cloudy
7:55 PM 33.8 °F 27.7 °F 24.8 °F 70% 30.56 in 10.0 mi NNE 6.9 mph - N/A   Partly Cloudy
8:15 PM 33.8 °F 27.7 °F 24.8 °F 70% 30.56 in 10.0 mi NNE 6.9 mph - N/A   Scattered Clouds
8:35 PM 33.8 °F 27.7 °F 24.8 °F 70% 30.56 in 10.0 mi NNE 6.9 mph - N/A   Clear
8:55 PM 33.8 °F 27.7 °F 24.8 °F 70% 30.56 in 10.0 mi NNE 6.9 mph - N/A   Clear
9:15 PM 33.8 °F 28.6 °F 24.8 °F 70% 30.56 in 10.0 mi NNE 5.8 mph - N/A   Clear
9:35 PM 33.8 °F 28.6 °F 24.8 °F 70% 30.56 in 10.0 mi NNE 5.8 mph - N/A   Partly Cloudy
9:55 PM 33.8 °F 29.6 °F 24.8 °F 70% 30.56 in 10.0 mi NNE 4.6 mph - N/A   Scattered Clouds
10:15 PM 33.8 °F 29.6 °F 24.8 °F 70% 30.56 in 10.0 mi NNE 4.6 mph - N/A   Scattered Clouds
10:35 PM 33.8 °F 28.6 °F 24.8 °F 70% 30.56 in 10.0 mi North 5.8 mph - N/A   Scattered Clouds
10:55 PM 33.8 °F 28.6 °F 24.8 °F 70% 30.56 in 10.0 mi North 5.8 mph - N/A   Scattered Clouds
11:15 PM 33.8 °F 29.6 °F 24.8 °F 70% 30.56 in 10.0 mi North 4.6 mph - N/A   Partly Cloudy
11:35 PM 33.8 °F - 26.6 °F 75% 30.56 in 10.0 mi Calm Calm - N/A   Mostly Cloudy
11:55 PM 33.8 °F 28.6 °F 24.8 °F 70% 30.56 in 10.0 mi North 5.8 mph - N/A   Scattered Clouds